Regional Weather Roundup
Issued by NWS

Home | Current Version | Previous Version | Text Only | Print | Product List | Glossary Off
Versions: 1 2 3 4 5 6 7 8 9 10 11 12 13 14 15 16 17 18 19 20 21 22 23 24 25 26 27 28 29 30 31 32 33 34 35 36 37 38 39 40 41 42 43 44 45 46 47 48 49 50

000
ASUS43 KLOT 010700
RWRIL

ILLINOIS REGIONAL WEATHER ROUNDUP
NATIONAL WEATHER SERVICE CHICAGO/ROMEOVILLE IL
200 AM CDT WED OCT 01 2014

NOTE: "FAIR" INDICATES FEW OR NO CLOUDS BELOW 12,000 FEET WITH NO
SIGNIFICANT WEATHER AND/OR OBSTRUCTIONS TO VISIBILITY.

* THESE STATIONS ARE NOT UNDER NWS QUALITY CONTROL. THEY ALSO MAY NOT
  REPORT WEATHER SUCH AS PRECIPITATION OR FOG.

ILZ001-002-007-009-015-016-024-010800-
NORTHWEST ILLINOIS

CITY           SKY/WX    TMP DP  RH WIND       PRES   REMARKS
MOLINE         NOT AVBL
$$

ILZ003-004-008-010-011-017-018-010800-
NORTH CENTRAL ILLINOIS

CITY           SKY/WX    TMP DP  RH WIND       PRES   REMARKS
ROCKFORD       CLOUDY    52  48  86 E3        30.03R
FREEPORT*      CLOUDY    50  47  88 E6        30.01S
ROCHELLE*      CLOUDY    50  47  89 E5        30.01R
$$

ILZ005-006-012>014-019>023-010800-
NORTHEAST ILLINOIS

CITY           SKY/WX    TMP DP  RH WIND       PRES   REMARKS
CHICAGO-OHARE  CLOUDY    54  46  74 E14       30.00F
CHICAGO-MIDWAY CLOUDY    56  47  71 SE10      30.01S
AURORA         MOCLDY    54  46  74 SE7       30.00F
LANSING*       CLEAR     49  45  88 NE3       30.02S
WAUKEGAN       CLOUDY    54  47  77 E10       30.00F
DUPAGE AIRPORT MOCLDY    53  46  77 E9        29.99F
WHEELING       CLOUDY    56  47  71 SE7       30.03R
NORTHERLY ISL    N/A     55  46  71 E10         N/A
$$

LMZ740>746-010800-
SOUTHERN LAKE MICHIGAN

STATION/POSITION SKY/WX   TEMP    WIND        PRES    VSBY  WAVE
                          AIR SEA DIR/SP/G                  HT/PER
                          (F)     (DEG/KT/KT) (MB)    (MI)  (FT/S)
SOUTHERN BUOY              57 61  130/  8/ 12 1017.2F         2/ 6
WAUKEGAN HARBOR            56     120/ 13/ 16   N/A
HARRISON CRIB              55     100/ 13/ 17   N/A
BURNHAM HARBOR             55     110/  9/ 14   N/A
CALUMET HARBOR             55     120/  7/ 10 1015.3R
MICHIGAN CITY              53      50/  5/  6   N/A
MICHIGAN CITY 6N           56 64  100/ 12/ 16   N/A           2/ 2
ST. JOSEPH                 56 62   50/  8/ 10   N/A           2/ 2
$$

ILZ025>027-034>036-040-047-049-050-058-095>099-010800-
WEST-CENTRAL ILLINOIS

CITY           SKY/WX    TMP DP  RH WIND       PRES   REMARKS
QUINCY         CLEAR     60  54  80 E12       29.90S
$$

ILZ028>032-037-038-041>044-048-051>054-059>061-010800-
CENTRAL ILLINOIS

CITY           SKY/WX    TMP DP  RH WIND       PRES   REMARKS
DECATUR        CLEAR     51  48  89 E8        29.97S
PEORIA         CLEAR     54  46  74 E9        29.97S
SPRINGFIELD    CLEAR     55  49  80 E8        29.95S
TAYLORVILLE    NOT AVBL
$$

ILZ033-039-045-046-055>057-062-063-010800-
EAST-CENTRAL ILLINOIS

CITY           SKY/WX    TMP DP  RH WIND       PRES   REMARKS
MATTOON        CLEAR     52  48  86 E5        29.95S
$$

ILZ079-100>102-010800-
SOUTHWEST ILLINOIS

CITY           SKY/WX    TMP DP  RH WIND       PRES   REMARKS
BELLEVILLE     CLEAR     62  62  98 E3        29.91S
CAHOKIA*       CLEAR     66  60  81 SE7       29.90S
SPARTA*        CLEAR     61  57  88 E6        29.92S
$$

ILZ064>066-069>071-074>076-080>082-084>086-088>090-092>094-010800-
SOUTH-CENTRAL ILLINOIS

CITY           SKY/WX    TMP DP  RH WIND       PRES   REMARKS
CARBONDALE     CLEAR     57  56  96 CALM      29.91S FOG
$$

ILZ067-068-072-073-078-083-087-091-010800-
SOUTHEAST ILLINOIS

CITY           SKY/WX    TMP DP  RH WIND       PRES   REMARKS
LAWRENCEVILLE  CLEAR     58  54  86 NE6       29.96R
ROBINSON*      CLEAR     56  53  92 CALM      29.97R
$$

ABBREVIATIONS USED IN REMARKS
   TC - TEMPERATURE IN CELSIUS
  WCI - WIND CHILL INDEX
   HX - HEAT INDEX
  VSB - VISIBILITY
$$




USA.gov is the U.S. government's official web portal to all federal, state and local government web resources and services.